Weather History for Orr, MN

Change the Weather History Date:

Tuesday, February 5, 2013

  Actual Average Record
Temperature  
Mean Temperature 4 °F -  
Max Temperature 12 °F 21 °F 50 °F (2005)
Min Temperature -5 °F 2 °F -27 °F (2007)
Degree Days  
Heating Degree Days 62    
Moisture  
Dew Point -3 °F    
Average Humidity 75    
Maximum Humidity 85    
Minimum Humidity 53    
Precipitation  
Precipitation 0.02 in - - ()
Sea Level Pressure  
Sea Level Pressure 29.78 in    
Wind  
Wind Speed 3 mph (WNW)    
Max Wind Speed 8 mph    
Max Gust Speed -    
Visibility 8 miles    
Events Snow    
Averages and records for this station are not official NWS values.
T = Trace of Precipitation, MM = Missing Value Source: NWS Daily Summary

Daily Weather History Graph

Daily Weather History Graph

Search for Another Location

Airport:

Trip Planner

Search our weather history database for the weather conditions in past years. The results will help you decide how hot, cold, wet, or windy it might be!

Date:

Astronomy

Feb. 05, 2013 Rise Set
Actual Time 7:33 AM CST 5:18 PM CST
Civil Twilight 7:00 AM CST 5:51 PM CST
Nautical Twilight 6:23 AM CST 6:28 PM CST
Astronomical Twilight 5:47 AM CST 7:04 PM CST
Moon 3:24 AM CST (2/5) 12:27 PM CST (2/5)
Length of Visible Light 10h 50m
Length of Day
9h 45m
Waning Crescent, 26% of the Moon is Illuminated
Feb 5
Waning Crescent
Feb 10
New
Feb 17
First Quarter
Feb 25
Full
Mar 4
Last Quarter

Hourly Weather History & Observations

Time (CST) Temp. Windchill Dew Point Humidity Pressure Visibility Wind Dir Wind Speed Gust Speed Precip Events Conditions
12:13 AM 6.8 °F -4.8 °F 1.4 °F 79% 29.57 in 2.0 mi SE 6.9 mph - N/A Snow Light Snow
12:34 AM 6.8 °F -3.5 °F 1.4 °F 79% 29.56 in 1.8 mi SE 5.8 mph - N/A Snow Light Snow
12:53 AM 6.8 °F -3.5 °F 1.4 °F 79% 29.55 in 2.0 mi SSE 5.8 mph - N/A Snow Light Snow
1:14 AM 6.8 °F -0.1 °F 1.4 °F 79% 29.55 in 2.0 mi SSE 3.5 mph - N/A Snow Light Snow
1:33 AM 6.8 °F -3.5 °F 1.4 °F 79% 29.55 in 2.0 mi SSE 5.8 mph - N/A Snow Light Snow
1:53 AM 6.8 °F -2.0 °F 1.4 °F 79% 29.55 in 2.0 mi SE 4.6 mph - N/A Snow Light Snow
2:13 AM 6.8 °F -0.1 °F 1.4 °F 79% 29.55 in 1.2 mi SE 3.5 mph - N/A Snow Light Snow
2:33 AM 6.8 °F - 1.4 °F 79% 29.55 in 2.0 mi Calm Calm - N/A Snow Light Snow
2:54 AM 6.8 °F - 1.4 °F 79% 29.55 in 1.8 mi Calm Calm - N/A Snow Light Snow
3:13 AM 6.8 °F - 3.2 °F 85% 29.54 in 1.8 mi Calm Calm - 0.01 in Snow Light Snow
3:33 AM 6.8 °F - 1.4 °F 79% 29.55 in 1.5 mi Calm Calm - 0.01 in Snow Light Snow
3:53 AM 6.8 °F - 1.4 °F 79% 29.55 in 2.0 mi Calm Calm - 0.02 in Snow Light Snow
4:13 AM 3.2 °F - -0.4 °F 85% 29.56 in 2.5 mi Calm Calm - N/A Snow Light Snow
4:33 AM 3.2 °F - -0.4 °F 85% 29.57 in 7.0 mi Calm Calm - N/A Snow Light Snow
4:53 AM 1.4 °F - -2.2 °F 85% 29.57 in 10.0 mi Calm Calm - N/A Snow Light Snow
5:13 AM 1.4 °F - -2.2 °F 85% 29.59 in 10.0 mi Calm Calm - N/A   Overcast
5:33 AM -0.4 °F - -5.8 °F 78% 29.60 in 10.0 mi Calm Calm - N/A   Overcast
5:53 AM -0.4 °F - -5.8 °F 78% 29.61 in 10.0 mi Calm Calm - N/A   Overcast
6:13 AM -0.4 °F - -5.8 °F 78% 29.63 in 5.0 mi Calm Calm - N/A Snow Light Snow
6:33 AM -2.2 °F - -7.6 °F 78% 29.64 in 10.0 mi Calm Calm - N/A Snow Light Snow
6:53 AM -2.2 °F - -7.6 °F 78% 29.66 in 10.0 mi Calm Calm - N/A Snow Light Snow
7:14 AM -5.8 °F -14.5 °F -9.4 °F 84% 29.67 in 10.0 mi NW 3.5 mph - N/A Snow Light Snow
7:33 AM -5.8 °F - -9.4 °F 84% 29.68 in 10.0 mi Calm Calm - N/A   Scattered Clouds
7:53 AM -5.8 °F - -9.4 °F 84% 29.69 in 7.0 mi Calm Calm - N/A Snow Light Snow
8:13 AM -4.0 °F -12.4 °F -7.6 °F 85% 29.71 in 10.0 mi NW 3.5 mph - N/A   Clear
8:33 AM -2.2 °F - -7.6 °F 78% 29.72 in 10.0 mi Calm Calm - N/A Snow Light Snow
9:13 AM -0.4 °F -10.4 °F -5.8 °F 78% 29.75 in 7.0 mi NW 4.6 mph - N/A Snow Light Snow
9:33 AM 1.4 °F -8.3 °F -4.0 °F 78% 29.76 in 10.0 mi NW 4.6 mph - N/A Snow Light Snow
10:14 AM 3.2 °F -4.2 °F -2.2 °F 78% 29.79 in 10.0 mi WNW 3.5 mph - N/A   Clear
10:33 AM 3.2 °F -9.1 °F -2.2 °F 78% 29.80 in 10.0 mi WNW 6.9 mph - N/A   Clear
10:53 AM 6.8 °F -3.5 °F -2.2 °F 67% 29.81 in 10.0 mi NW 5.8 mph - N/A   Clear
11:13 AM 6.8 °F -4.8 °F -2.2 °F 67% 29.82 in 10.0 mi WNW 6.9 mph - N/A   Clear
11:33 AM 6.8 °F -5.9 °F -2.2 °F 67% 29.83 in 10.0 mi WNW 8.1 mph - N/A   Clear
11:53 AM 8.6 °F -1.3 °F -0.4 °F 67% 29.84 in 10.0 mi WNW 5.8 mph - N/A   Clear
12:13 PM 8.6 °F -3.7 °F -0.4 °F 67% 29.84 in 10.0 mi NW 8.1 mph - N/A   Clear
12:33 PM 10.4 °F -1.5 °F -0.4 °F 62% 29.84 in 10.0 mi WNW 8.1 mph - N/A   Clear
12:53 PM 10.4 °F -1.5 °F -0.4 °F 62% 29.85 in 10.0 mi WNW 8.1 mph - N/A   Clear
1:13 PM 10.4 °F -1.5 °F -0.4 °F 62% 29.85 in 10.0 mi NW 8.1 mph - N/A   Clear
1:33 PM 10.4 °F -0.4 °F -0.4 °F 62% 29.86 in 10.0 mi WNW 6.9 mph - N/A   Clear
1:53 PM 10.4 °F -1.5 °F -0.4 °F 62% 29.85 in 10.0 mi WNW 8.1 mph - N/A   Clear
2:13 PM 10.4 °F -1.5 °F -0.4 °F 62% 29.86 in 10.0 mi WNW 8.1 mph - N/A   Clear
2:33 PM 12.2 °F 2.9 °F -2.2 °F 53% 29.86 in 10.0 mi NW 5.8 mph - N/A   Clear
2:53 PM 10.4 °F -1.5 °F -2.2 °F 57% 29.87 in 10.0 mi WNW 8.1 mph - N/A   Clear
3:13 PM 10.4 °F -0.4 °F -2.2 °F 57% 29.90 in 10.0 mi NW 6.9 mph - N/A   Clear
3:33 PM 10.4 °F -0.4 °F -2.2 °F 57% 29.90 in 10.0 mi WNW 6.9 mph - N/A   Clear
3:53 PM 10.4 °F 0.8 °F -2.2 °F 57% 29.90 in 10.0 mi NW 5.8 mph - N/A   Clear
4:13 PM 10.4 °F -1.5 °F -0.4 °F 62% 29.91 in 10.0 mi West 8.1 mph - N/A   Clear
4:33 PM 8.6 °F 0.1 °F -2.2 °F 62% 29.91 in 10.0 mi WNW 4.6 mph - N/A   Clear
4:53 PM 6.8 °F -3.5 °F -4.0 °F 61% 29.91 in 10.0 mi WNW 5.8 mph - N/A   Clear
5:13 PM 5.0 °F -4.1 °F -4.0 °F 66% 29.91 in 10.0 mi NW 4.6 mph - N/A   Clear
5:53 PM 3.2 °F -4.2 °F -4.0 °F 72% 29.93 in 10.0 mi NW 3.5 mph - N/A   Clear
6:14 PM 1.4 °F - -4.0 °F 78% 29.93 in 10.0 mi Calm Calm - N/A   Scattered Clouds
6:33 PM 1.4 °F - -2.2 °F 85% 29.93 in 10.0 mi Calm Calm - N/A   Mostly Cloudy
6:53 PM 1.4 °F - -2.2 °F 85% 29.93 in 10.0 mi Calm Calm - N/A   Overcast
7:13 PM 3.2 °F - -2.2 °F 78% 29.93 in 10.0 mi Calm Calm - N/A   Overcast
7:33 PM 3.2 °F - -0.4 °F 85% 29.94 in 10.0 mi Calm Calm - N/A   Overcast
7:53 PM 5.0 °F - -2.2 °F 72% 29.94 in 10.0 mi Calm Calm - N/A   Overcast
8:13 PM 5.0 °F - -2.2 °F 72% 29.94 in 10.0 mi Calm Calm - N/A   Overcast
8:33 PM 3.2 °F - -2.2 °F 78% 29.95 in 10.0 mi Calm Calm - N/A   Overcast
8:53 PM 5.0 °F - -2.2 °F 72% 29.96 in 10.0 mi Calm Calm - N/A   Overcast
9:14 PM 3.2 °F - -2.2 °F 78% 29.96 in 10.0 mi Calm Calm - N/A   Overcast
9:33 PM 3.2 °F - -2.2 °F 78% 29.96 in 10.0 mi Calm Calm - N/A   Overcast
9:53 PM 1.4 °F - -2.2 °F 85% 29.96 in 10.0 mi Calm Calm - N/A   Overcast
10:13 PM -0.4 °F - -4.0 °F 85% 29.96 in 10.0 mi Calm Calm - N/A   Scattered Clouds
10:34 PM -2.2 °F - -5.8 °F 85% 29.96 in 10.0 mi Calm Calm - N/A   Clear
10:53 PM -2.2 °F - -7.6 °F 78% 29.97 in 10.0 mi Calm Calm - N/A   Clear
11:13 PM -2.2 °F - -7.6 °F 78% 29.98 in 10.0 mi Calm Calm - N/A   Clear
11:33 PM -5.8 °F - -9.4 °F 84% 29.97 in 10.0 mi Calm Calm - N/A   Scattered Clouds
11:53 PM -4.0 °F - -7.6 °F 85% 29.97 in 10.0 mi Calm Calm - N/A   Overcast